Theta_e
336 336 337 333 334 337 337 338 336 334 334 331 334 333 334 333 331 330 328 329 329 329 333 333 332 334 337 340 341 340 344 348 350 349 350 351 353 357 358 356 354 356 357 356 356 357 358 359 358 358 359 359 358 356 354 353 356 354 352 355 356 357 357 359 359 359 359 359 359 358 358 358 358 358 358 358 357 357 358 360 360 358 360 359 359
339 338 337 335 336 337 336 336 337 336 332 330 333 333 333 327 330 328 328 328 328 329 334 331 334 336 341 341 342 343 344 348 351 354 355 354 355 357 355 354 355 355 355 357 358 357 357 357 356 358 356 357 357 357 357 357 355 358 356 355 356 357 358 359 359 360 359 359 359 358 357 358 359 359 359 359 359 359 359 359 360 358 357 359 359
339 339 340 336 335 334 333 334 335 336 333 331 333 334 330 328 328 327 327 328 328 329 331 332 334 340 343 342 342 343 344 345 346 348 352 354 355 357 357 357 356 356 358 358 356 353 351 351 349 352 355 356 355 355 355 356 356 357 358 356 356 358 358 358 359 359 358 359 359 358 358 358 358 359 359 360 360 360 359 361 360 359 357 358 359
339 340 342 335 333 332 332 332 332 329 332 331 332 329 329 328 329 330 328 329 328 328 332 330 334 339 341 341 342 342 342 343 345 346 348 350 351 352 355 356 356 356 352 350 351 350 350 350 351 353 353 354 354 352 352 353 354 355 354 356 358 359 359 360 362 359 357 358 359 359 359 358 358 358 358 358 360 361 359 359 357 360 360 357 359
339 340 342 335 334 332 331 332 330 329 331 331 328 326 326 326 327 331 329 329 327 328 333 332 334 337 340 340 341 341 342 343 344 345 346 348 348 348 350 354 354 356 352 346 351 351 350 350 352 352 352 352 351 349 352 353 353 352 353 354 355 357 358 358 359 359 358 358 359 358 358 358 358 358 358 358 359 360 360 359 358 358 360 359 359
338 337 334 329 329 331 330 329 330 330 330 330 324 324 324 325 327 328 332 329 326 327 329 329 331 336 340 341 340 341 343 343 343 344 345 345 346 348 349 347 347 347 350 351 351 349 350 348 350 351 351 351 351 352 352 353 352 353 352 352 353 355 357 358 358 358 358 358 359 357 357 358 358 357 358 358 358 359 360 359 358 357 359 358 359
336 335 331 330 329 329 330 329 331 329 327 328 324 324 324 324 327 327 325 325 326 330 328 328 330 331 338 342 340 341 342 342 344 344 345 342 344 346 346 347 346 347 350 345 353 352 351 351 351 350 351 351 352 351 351 352 352 352 353 353 351 352 353 356 358 357 356 357 356 357 356 357 357 355 357 359 357 358 359 360 358 359 358 358 358
334 334 331 329 327 326 328 331 329 325 324 324 326 324 324 325 326 326 323 324 327 324 327 327 330 332 334 341 342 344 341 341 343 344 345 343 344 346 349 349 346 349 353 346 344 350 352 352 351 351 350 351 351 351 352 352 353 354 354 353 349 350 349 353 355 355 355 356 355 354 358 357 357 358 356 357 357 356 357 359 358 359 359 359 358
334 333 329 327 325 325 326 329 330 326 323 321 322 328 322 325 325 327 324 324 325 322 323 327 329 331 332 337 339 341 338 340 341 342 345 343 342 344 344 344 349 352 344 345 345 346 353 352 350 351 351 350 351 350 349 349 349 351 354 353 352 353 352 354 354 355 356 352 353 352 355 358 357 356 357 356 356 358 356 357 358 359 359 358 358
332 332 332 333 326 324 325 327 328 327 326 323 322 324 321 322 323 325 328 326 321 321 322 325 330 331 333 335 337 336 337 341 344 345 338 338 338 339 342 344 344 345 343 343 344 344 346 350 352 351 352 350 348 346 347 346 345 347 351 353 351 352 355 353 355 355 355 356 355 353 352 354 357 359 359 356 355 356 355 356 357 358 358 358 358
329 330 330 329 326 323 323 324 328 326 325 325 323 325 324 322 323 325 326 327 323 321 322 327 328 331 334 334 335 335 337 340 336 333 333 335 336 338 335 331 341 344 344 345 345 343 342 342 343 343 347 348 345 345 346 346 345 344 346 348 353 355 354 353 353 353 353 354 354 355 355 355 358 358 360 358 354 354 353 354 356 357 359 358 357
326 327 328 327 325 325 322 325 325 325 325 324 323 323 322 323 324 329 323 326 324 321 321 323 324 328 331 325 327 334 337 335 332 331 332 329 328 327 327 330 336 340 344 346 346 345 344 343 348 343 344 348 348 347 347 347 347 347 346 345 347 350 352 353 354 353 354 354 354 354 355 355 356 359 360 355 354 352 354 355 355 356 358 359 358
328 325 324 329 325 324 323 323 324 327 326 324 323 324 325 324 324 326 326 322 322 323 322 323 322 324 327 327 323 325 331 329 327 327 326 325 324 325 330 333 335 338 341 344 344 343 343 343 342 343 343 341 343 349 348 348 347 348 348 346 346 347 348 349 351 355 354 353 354 353 356 356 358 359 359 357 357 356 354 355 356 357 357 359 358
329 326 325 323 323 323 323 322 322 326 325 324 324 329 322 322 322 321 323 324 321 323 323 318 317 319 320 321 322 324 328 321 323 323 326 326 325 324 331 333 334 336 338 340 340 341 342 342 342 342 341 341 341 341 343 342 344 347 348 346 346 347 346 346 347 349 354 355 355 355 356 356 356 357 359 359 358 356 356 356 357 357 356 358 357
325 329 325 325 323 323 324 321 322 326 320 319 319 320 320 321 321 320 319 322 324 323 322 321 316 319 322 319 314 315 320 319 320 322 325 325 326 326 331 333 334 335 337 338 339 340 341 340 340 340 338 338 338 338 338 342 345 346 347 345 344 346 347 346 346 346 347 352 354 353 355 356 355 356 358 359 358 358 357 357 357 357 358 358 357
325 328 325 323 322 323 324 320 320 322 319 318 318 319 320 320 320 322 319 317 317 318 323 321 319 316 313 315 315 315 308 312 316 318 321 323 323 325 330 332 334 336 336 336 338 340 339 339 338 337 337 337 335 334 334 336 341 344 347 345 344 345 346 347 347 346 346 346 350 353 354 354 353 353 355 358 357 357 356 355 356 355 356 356 356
324 325 330 321 322 323 322 320 318 319 319 317 317 319 319 319 320 319 318 316 316 317 318 322 320 322 318 314 311 310 310 312 314 312 318 320 321 322 332 329 335 337 334 335 336 337 338 337 337 337 336 336 335 333 332 333 334 339 339 345 344 343 344 345 346 346 347 346 345 350 352 352 353 353 353 353 355 353 353 355 356 354 354 355 355
323 324 327 325 320 320 320 320 318 319 320 318 318 319 319 319 320 319 318 318 315 313 314 319 323 323 321 319 315 310 311 314 308 306 315 321 320 321 320 326 333 334 334 335 335 335 340 337 336 337 337 336 335 333 331 333 338 333 335 336 341 342 343 344 344 345 346 346 346 345 350 351 352 352 353 352 352 353 352 352 355 354 354 353 355
324 323 323 323 320 320 320 321 322 321 324 318 317 318 320 321 322 318 318 320 314 311 312 314 315 317 320 320 323 322 317 311 309 308 307 313 317 318 318 322 333 334 334 333 333 333 334 338 335 336 336 336 335 333 331 333 336 340 340 338 337 339 341 343 343 343 344 345 345 346 345 349 351 351 351 351 351 352 352 352 352 350 351 349 351
323 322 322 325 321 320 320 321 322 323 324 318 318 319 320 321 323 319 319 318 314 311 310 312 310 312 320 315 318 319 316 316 315 313 311 307 311 317 318 318 324 330 335 333 332 331 330 331 332 333 333 335 336 334 331 332 331 330 334 337 336 335 339 341 341 342 343 343 345 344 345 346 351 352 351 351 350 349 349 349 348 348 347 347 347
323 323 323 327 327 321 320 320 321 322 325 321 320 319 319 318 318 319 317 315 318 316 311 310 310 310 310 311 310 310 312 315 316 316 312 306 309 311 311 315 318 320 330 333 333 333 333 332 334 332 335 330 330 333 333 331 333 328 340 335 334 334 336 338 340 341 342 342 343 344 345 345 350 351 351 349 349 349 349 349 350 351 351 352 351
323 322 323 322 321 322 321 321 322 325 325 320 320 318 318 317 317 319 319 317 314 316 314 312 311 310 310 311 308 308 309 312 313 312 311 311 308 309 311 311 312 315 323 326 332 331 330 329 327 327 327 325 326 328 330 331 335 329 331 333 333 334 335 336 338 340 341 341 342 343 344 344 346 350 351 350 348 348 348 350 350 351 350 352 353
322 321 322 322 323 325 321 323 324 327 323 319 320 321 320 319 318 316 317 318 316 312 314 313 310 310 310 309 307 308 309 311 310 311 310 309 308 308 310 313 314 313 319 327 335 332 332 330 328 327 325 324 324 328 329 334 339 338 331 332 333 334 334 334 336 338 340 341 341 341 342 343 345 349 350 351 351 349 349 349 349 349 351 352 353
319 319 320 322 323 323 325 323 323 319 318 318 319 319 319 320 320 318 316 316 319 317 312 310 308 309 309 310 309 311 312 312 313 313 313 311 310 308 309 312 314 315 321 324 329 326 323 327 327 322 322 322 325 328 328 331 332 337 334 337 333 334 335 336 336 338 339 339 338 339 341 342 344 347 349 350 351 351 351 350 349 349 349 350 352
317 318 319 320 321 320 321 321 320 321 319 318 318 318 318 320 321 318 317 315 314 314 313 311 309 308 309 311 311 310 311 312 313 312 313 313 311 308 310 313 312 314 318 321 319 325 320 318 324 320 318 320 323 325 324 324 327 334 333 332 336 337 339 340 341 340 338 337 337 339 341 342 343 347 349 350 350 350 350 351 350 349 349 350 351
318 318 320 322 321 324 323 321 320 322 321 319 318 320 320 320 319 318 318 316 315 314 314 314 311 309 310 311 311 312 311 313 312 313 313 312 310 310 309 309 313 314 318 317 318 314 315 317 319 320 317 319 319 323 324 321 326 334 333 329 326 335 338 340 343 343 339 337 338 338 339 340 343 345 348 349 349 349 349 350 351 351 350 349 350
318 319 322 320 321 320 320 319 319 317 318 318 320 318 318 319 321 319 321 318 315 316 315 315 314 310 309 311 315 311 311 314 313 314 313 314 314 312 309 309 309 310 312 313 314 314 314 315 318 318 317 320 318 319 327 323 335 334 333 319 320 333 338 338 339 341 341 340 339 339 339 340 341 343 347 348 349 349 349 350 350 350 351 352 351
319 319 320 319 319 321 320 318 318 318 319 318 318 318 319 319 318 318 318 323 316 315 315 315 314 312 310 310 310 310 312 313 317 314 312 316 317 315 312 309 308 306 308 307 308 310 314 311 314 317 316 316 318 318 330 323 329 331 330 320 319 324 336 335 336 337 338 338 339 339 339 339 340 342 344 348 348 348 348 349 348 348 349 352 352
321 320 319 319 319 319 319 320 320 320 320 320 320 320 319 318 317 317 317 318 319 314 315 315 315 315 312 312 310 311 310 313 314 319 316 314 316 317 313 311 310 307 304 302 304 307 310 312 311 313 316 316 317 318 319 318 333 327 319 319 320 324 333 335 335 336 336 336 337 338 340 341 340 341 342 345 347 347 348 348 346 346 346 348 350
321 321 319 319 320 326 317 318 318 318 319 321 321 320 320 319 318 317 319 318 317 317 318 315 315 316 315 311 309 308 311 311 313 315 317 315 313 316 315 314 314 308 305 303 303 308 309 310 313 312 314 315 317 318 320 318 336 327 320 318 320 326 331 331 332 334 335 336 336 337 339 341 342 342 341 342 345 346 346 347 344 344 344 345 346
323 319 318 319 318 317 317 317 317 316 317 318 320 319 319 318 319 318 318 317 315 315 317 317 317 314 311 310 309 308 310 310 312 313 314 315 313 314 315 317 316 311 308 305 302 306 312 308 311 314 313 314 317 318 318 319 328 326 318 317 319 329 329 326 330 331 333 335 335 336 340 343 343 343 342 341 342 345 345 345 344 343 343 343 344
319 319 319 318 318 319 319 319 318 318 318 317 318 318 318 317 317 318 316 318 316 315 316 316 317 313 310 309 309 308 310 311 312 314 315 316 315 313 314 314 313 314 312 307 305 306 310 311 311 314 314 316 316 316 316 318 322 327 318 317 320 326 320 319 325 328 331 334 334 336 339 341 343 342 342 341 341 343 344 344 343 342 342 342 341
318 318 319 318 318 319 319 322 319 319 318 317 318 317 318 318 317 317 317 317 316 316 318 316 316 312 311 308 307 309 311 312 312 314 316 316 315 315 315 312 312 313 312 308 306 307 308 312 313 314 315 315 313 314 314 315 317 318 321 316 317 316 317 317 318 325 329 332 333 335 338 337 339 341 342 343 343 343 344 344 342 341 340 340 339
318 319 318 319 318 318 318 318 317 317 318 318 318 318 319 317 317 323 319 316 316 315 315 314 314 314 310 307 307 308 310 312 313 313 314 315 314 313 313 313 311 313 313 310 308 307 306 310 312 314 314 315 311 312 312 314 316 318 314 314 314 315 317 316 317 318 327 331 332 333 336 335 335 337 339 341 342 343 343 342 341 339 338 337 336
319 318 318 317 317 316 316 316 316 317 318 318 318 317 317 315 315 316 318 315 315 315 315 315 313 310 309 310 308 308 312 311 311 312 314 313 313 312 311 313 312 312 313 311 308 307 307 308 311 312 312 313 312 311 312 314 317 315 312 312 313 315 318 317 317 318 325 329 331 332 334 334 333 334 336 337 340 342 342 341 339 337 335 332 332
317 319 318 318 318 317 317 317 316 317 319 319 318 317 317 316 317 318 318 315 316 316 315 314 312 309 308 307 308 308 309 309 309 310 312 312 311 311 310 312 311 312 313 312 310 307 307 308 310 311 313 311 311 312 314 313 313 313 312 312 312 313 314 316 316 317 323 327 329 330 332 332 332 333 334 334 336 339 340 338 335 333 333 332 332
319 319 320 317 316 315 317 316 317 317 319 319 319 318 319 319 319 320 319 318 315 313 313 314 317 309 310 307 308 307 307 308 309 309 310 310 311 310 308 310 310 312 312 312 310 310 309 308 310 311 311 311 313 311 311 310 311 310 310 310 311 312 313 314 316 319 324 325 326 328 330 331 331 331 332 333 333 336 337 336 335 334 333 333 332
318 318 318 318 320 318 319 319 319 319 319 318 317 318 319 321 320 319 320 320 318 313 313 314 311 311 309 308 309 308 307 308 308 308 309 309 310 309 308 309 310 309 308 309 311 310 309 309 308 308 308 311 309 307 309 311 310 308 308 309 309 310 312 312 314 317 320 319 319 322 326 327 328 329 330 332 331 333 335 335 335 335 335 334 332
318 318 319 319 323 319 320 321 320 319 319 319 320 320 318 319 320 320 320 320 319 318 316 312 311 310 309 310 310 308 307 307 308 307 307 309 312 309 314 310 310 308 308 308 309 308 308 308 308 308 307 310 310 306 308 310 309 309 307 307 308 310 311 311 312 315 316 317 322 325 326 327 329 328 327 328 329 331 333 333 333 334 335 336 333
319 319 319 320 321 322 320 320 320 321 319 317 320 320 320 321 321 320 320 321 320 320 318 313 312 311 310 310 309 308 308 309 308 308 308 307 310 310 309 310 311 309 308 309 308 307 307 308 307 306 306 307 307 307 310 307 306 306 309 308 306 308 309 311 311 312 315 317 316 317 322 323 323 325 327 327 329 332 337 336 336 338 338 338 335
322 320 319 319 320 321 320 320 320 322 320 322 323 321 320 321 319 319 318 319 320 320 319 316 313 312 312 310 309 309 314 322 323 322 323 322 309 309 310 311 311 311 309 308 308 306 306 307 307 307 305 305 305 305 305 304 305 305 307 307 307 309 309 310 311 312 317 315 315 315 317 318 319 320 322 322 325 331 334 337 337 338 338 337 334
321 326 323 323 320 319 320 321 322 326 324 325 333 333 333 321 319 321 321 319 320 319 319 319 317 313 312 312 315 322 327 326 325 324 324 325 325 318 312 310 313 311 309 307 306 307 307 307 306 305 305 305 305 305 305 305 306 307 307 307 306 307 308 308 310 310 316 313 312 313 316 320 320 320 320 320 322 327 328 332 332 333 334 332 331
320 325 320 321 321 322 322 320 320 323 326 330 334 336 338 333 324 319 319 319 320 319 319 317 316 314 313 313 312 324 327 326 323 326 325 324 325 324 324 324 328 313 308 308 308 308 309 309 306 306 305 304 306 307 306 307 308 307 306 307 308 309 306 304 303 309 313 313 312 312 316 319 320 318 319 320 321 322 325 327 331 333 333 332 330
322 321 320 321 322 321 322 321 321 324 325 333 333 336 331 330 335 320 318 319 322 320 320 319 319 316 314 314 316 320 319 317 315 316 325 328 325 325 324 323 324 324 328 319 316 313 308 308 308 308 305 306 306 307 307 307 308 307 308 307 306 306 305 304 304 304 310 314 312 312 315 319 318 321 317 319 321 321 324 326 328 331 332 331 331
321 318 318 321 321 322 322 321 322 326 325 333 333 333 330 331 329 326 318 320 320 320 319 319 319 316 315 316 317 317 318 327 326 319 313 314 328 324 323 325 327 325 326 326 327 323 316 311 310 308 307 307 307 310 314 314 314 309 309 309 308 307 306 305 305 305 310 313 313 312 312 316 316 317 315 318 319 320 323 325 327 330 332 332 331
317 319 320 320 320 319 320 321 322 322 322 331 333 333 333 333 331 328 319 320 320 320 320 319 321 317 314 316 315 315 313 315 318 318 315 312 312 312 310 309 310 318 326 325 326 327 327 318 312 310 312 312 313 314 317 317 313 313 311 311 311 309 309 309 309 310 312 315 312 311 310 312 315 315 315 316 319 320 321 321 323 328 330 330 330
317 316 319 319 320 324 322 321 320 322 324 335 331 334 334 334 334 330 317 321 320 320 321 321 320 318 314 316 315 314 312 311 317 318 313 311 309 311 309 309 309 310 312 313 312 314 320 319 315 313 314 314 313 313 313 314 315 315 315 314 314 312 310 310 309 311 312 316 313 312 309 311 312 313 314 315 318 317 318 322 323 325 326 326 328
320 319 319 320 324 321 322 321 322 319 321 333 330 332 333 333 332 325 320 319 318 319 321 322 321 320 318 317 316 315 313 312 325 329 328 316 309 309 310 309 310 312 313 323 326 327 328 323 317 314 313 314 323 323 325 321 319 319 322 318 313 310 308 307 306 308 311 314 313 311 309 308 311 312 313 316 316 315 318 321 323 325 325 324 325
316 318 319 321 322 321 322 321 319 319 320 331 328 329 331 331 332 321 319 318 318 317 319 321 320 321 321 317 315 314 314 314 326 327 330 331 309 310 310 310 312 312 313 316 323 326 329 327 326 326 325 324 325 325 324 326 325 323 319 314 315 310 307 306 308 307 307 311 316 314 309 306 309 310 312 314 316 318 319 319 320 323 323 322 322
318 319 318 320 322 322 324 321 321 319 320 329 329 327 328 330 331 320 317 317 317 318 320 320 320 319 321 334 333 318 316 317 327 327 327 329 313 313 312 312 312 312 313 315 316 319 326 327 327 327 326 327 327 327 326 326 326 330 318 315 315 308 309 309 305 307 308 312 314 318 307 305 309 309 310 311 319 317 317 316 321 322 320 318 319
320 320 327 323 325 323 322 323 333 328 321 326 328 325 325 327 330 322 320 318 318 319 318 318 320 321 320 328 333 333 326 324 325 325 326 329 318 315 314 312 312 311 313 314 313 313 313 313 315 317 321 323 323 319 322 327 328 328 321 318 316 310 311 310 309 308 306 304 309 314 307 305 307 309 310 308 306 310 315 318 320 318 318 319 321
Wind_Speed
3 3 2 4 4 5 5 4 4 6 6 6 5 5 5 5 4 5 4 5 5 6 5 5 4 4 3 4 5 4 3 5 3 2 3 3 3 2 2 5 0 4 5 5 3 2 4 4 5 6 7 7 8 7 7 12 10 9 9 11 12 11 13 14 16 16 16 17 17 17 17 17 17 16 16 18 19 18 19 18 17 17 17 16 15
3 4 4 4 5 5 5 4 5 6 6 6 5 5 4 5 5 5 5 5 5 5 5 5 5 3 4 5 5 4 4 5 5 4 4 3 1 4 6 3 5 6 1 2 4 4 5 6 7 8 6 6 9 9 8 8 8 9 8 9 11 13 14 15 15 15 16 16 17 17 19 19 17 17 18 18 19 20 20 19 17 18 18 16 16
4 4 4 4 5 5 5 5 6 5 4 4 3 3 3 3 4 5 5 5 5 5 5 5 4 3 3 5 5 5 5 4 5 5 4 4 4 4 4 5 3 3 4 4 6 10 10 10 10 9 12 13 12 13 11 10 9 7 8 9 12 15 16 16 16 16 16 17 17 17 19 19 19 19 19 19 18 19 20 17 18 20 19 18 16
4 4 4 4 5 5 5 5 5 5 4 4 4 3 3 4 4 4 4 4 5 5 5 4 3 2 3 5 4 5 4 4 5 5 4 4 4 4 4 3 4 5 11 14 8 5 7 9 7 9 9 11 12 15 16 12 12 15 14 9 9 12 13 15 15 15 16 18 19 18 19 19 20 20 20 20 19 19 19 17 19 18 18 18 17
5 4 5 4 4 5 5 5 4 4 4 4 4 4 6 6 6 5 5 5 6 6 5 5 4 3 1 4 4 4 3 5 3 4 4 3 2 2 4 2 3 8 14 2 8 8 5 5 6 7 9 10 9 7 8 9 11 11 15 14 12 10 11 13 14 15 16 17 17 18 19 19 20 21 21 21 21 20 20 18 19 19 18 19 18
5 5 4 5 5 4 4 5 5 4 3 4 5 5 5 5 5 5 5 4 5 5 5 6 5 4 1 2 3 4 4 5 4 3 2 3 2 3 4 5 5 3 4 7 4 1 1 2 4 5 9 9 9 10 11 11 10 10 10 11 15 16 12 11 11 13 15 17 17 17 18 18 19 19 21 21 21 21 20 19 18 19 17 18 18
4 4 4 5 5 5 5 4 4 3 4 3 4 4 4 4 3 5 4 4 3 3 3 4 3 4 2 1 4 4 3 4 3 2 2 2 2 3 3 2 2 2 2 2 1 1 3 5 5 7 7 8 9 8 6 8 8 8 11 11 11 15 17 14 12 11 12 15 16 17 18 18 20 20 21 21 21 22 21 20 21 19 19 19 19
4 4 5 5 5 5 4 4 3 4 4 3 3 4 4 4 3 1 4 5 4 5 3 4 3 3 2 1 3 3 4 3 3 2 1 2 2 2 3 3 3 4 4 2 1 1 5 8 8 8 8 7 6 7 6 8 9 8 11 11 9 12 15 15 10 7 11 12 14 15 19 19 20 21 21 22 21 23 22 22 21 21 20 19 20
4 3 4 4 5 5 4 3 3 3 3 3 4 3 3 3 4 3 2 2 4 4 4 3 3 3 3 1 1 3 4 5 3 2 2 3 2 2 2 3 4 6 3 3 3 2 7 8 8 9 6 5 7 8 12 14 14 15 14 15 14 12 9 10 10 10 9 10 11 13 17 19 20 21 22 24 23 22 24 22 22 21 20 20 21
5 4 5 4 4 4 3 3 3 3 3 3 4 3 3 3 4 4 4 4 5 4 4 3 2 3 3 3 2 3 4 5 4 3 5 3 2 1 1 2 4 3 3 3 3 3 4 6 8 7 7 8 10 12 12 14 15 16 16 14 9 15 15 15 13 11 11 11 10 11 13 16 20 23 23 22 23 21 21 22 22 22 22 22 22
5 4 5 4 4 3 3 3 3 3 3 3 4 4 5 4 4 5 4 3 4 3 3 2 3 3 5 4 3 3 4 5 5 5 4 4 4 3 3 5 4 3 4 3 3 3 3 2 3 3 3 11 11 12 13 14 16 17 17 18 18 18 18 16 15 14 13 12 12 12 12 15 17 21 23 21 18 20 21 25 23 22 22 22 24
4 4 4 3 3 3 3 3 3 3 4 4 5 6 5 5 6 4 4 4 4 5 4 3 3 6 6 6 5 5 6 5 5 3 3 3 4 6 7 5 6 3 3 4 3 3 3 3 4 4 3 6 10 12 13 14 15 16 18 19 19 19 18 18 18 16 17 17 15 14 13 14 17 21 22 22 23 24 23 22 24 23 22 22 21
4 4 4 3 2 2 2 3 3 3 4 3 3 4 4 3 3 4 5 5 7 7 6 2 4 5 5 7 7 6 6 6 5 4 4 4 4 5 6 7 5 5 3 4 3 2 2 4 3 4 4 4 4 8 10 12 13 15 17 18 19 18 19 19 19 19 17 18 18 17 16 16 19 21 22 23 25 27 25 23 24 24 24 22 22
3 3 3 2 3 3 3 4 4 5 4 4 5 5 5 6 4 5 3 4 5 6 7 2 5 2 4 4 4 4 3 5 6 6 4 4 4 4 4 5 5 5 4 5 3 3 3 3 3 3 3 4 4 4 5 6 6 14 16 17 18 18 19 19 19 19 20 21 22 20 18 19 20 19 22 24 25 27 27 27 27 26 24 22 23
3 2 2 2 2 3 3 3 5 5 7 7 5 6 5 6 6 4 4 3 3 5 8 6 2 1 1 5 2 2 4 5 3 5 6 5 5 3 1 4 5 4 4 4 3 3 2 2 3 3 3 3 3 3 3 5 6 11 14 16 17 18 18 18 18 19 20 21 21 23 21 20 22 18 14 23 27 27 27 24 24 25 24 21 21
3 2 2 3 3 4 4 6 5 5 6 6 5 6 6 6 6 5 3 6 5 6 6 6 3 0 3 1 1 2 1 2 2 2 3 3 6 3 3 3 3 4 5 5 3 3 2 2 2 2 2 3 2 3 3 3 7 8 8 16 17 17 18 18 19 19 20 21 22 23 24 24 21 19 13 18 26 26 25 24 22 23 23 22 20
1 0 1 4 4 5 4 4 5 4 5 5 5 5 4 4 4 5 6 3 6 4 6 5 6 3 4 2 2 4 1 1 2 1 4 6 6 6 5 5 4 3 4 4 3 3 2 2 1 2 2 2 3 3 3 3 4 4 4 11 17 17 17 18 19 19 20 22 22 22 23 26 21 19 17 15 24 20 22 22 23 21 22 20 21
1 1 2 4 5 5 4 4 4 5 5 4 4 5 6 5 4 4 6 4 4 7 6 5 4 7 5 3 2 3 1 1 2 0 4 1 5 7 7 5 4 3 4 3 4 2 1 1 1 2 2 2 3 3 3 4 4 5 5 9 17 17 17 18 19 19 20 21 22 23 24 26 21 17 23 11 21 21 19 16 19 20 19 19 19
0 1 4 5 6 6 6 5 5 4 3 5 5 4 4 3 3 5 4 4 6 7 5 4 3 6 5 6 6 4 2 3 0 0 2 4 5 7 8 6 3 3 3 3 3 3 2 1 2 2 2 2 3 3 4 4 6 7 13 17 17 17 16 17 18 18 19 20 21 22 23 22 17 20 20 16 13 15 14 14 11 12 12 11 12
2 1 4 5 5 5 5 6 5 3 3 3 3 3 5 4 3 3 4 5 5 6 4 6 5 3 4 6 5 5 5 5 2 2 2 2 6 3 4 5 4 3 3 3 3 3 2 1 1 2 2 3 3 3 3 3 4 5 5 16 17 17 16 16 17 17 18 19 19 20 21 21 24 20 18 18 15 11 8 9 7 9 12 14 13
3 2 3 4 5 5 5 5 5 4 3 4 3 4 4 4 5 6 4 4 4 3 5 5 6 4 4 4 5 5 5 4 3 4 4 2 2 4 4 4 3 5 5 3 2 1 1 0 0 2 4 3 2 3 3 2 4 4 7 16 17 16 15 16 16 17 17 18 18 19 20 21 22 23 18 11 11 9 6 5 10 11 15 18 20
3 5 7 4 5 5 4 4 4 4 3 3 3 3 3 3 3 4 3 4 4 5 4 3 4 4 5 3 5 4 6 5 5 4 3 4 4 2 2 3 5 4 4 5 3 2 3 4 4 5 5 5 4 4 5 3 1 4 9 17 15 15 15 15 16 16 16 17 17 18 20 20 21 20 19 13 7 6 4 5 3 10 11 13 15
5 6 6 5 5 4 4 3 3 3 4 4 3 3 3 3 3 4 4 4 4 6 5 4 5 6 5 6 6 6 4 3 3 3 3 3 3 5 2 2 1 3 5 3 4 5 5 5 6 6 7 7 6 5 5 5 5 8 15 15 15 16 16 16 16 15 15 16 16 16 17 19 19 18 17 17 15 10 3 2 4 5 8 10 12
4 6 5 5 5 4 3 3 3 4 4 4 3 3 3 4 4 4 4 4 4 6 6 7 6 6 5 4 5 4 4 4 2 3 5 1 2 1 2 3 2 2 2 3 2 5 7 5 4 5 7 5 5 4 6 4 6 14 8 12 15 18 18 17 16 15 15 16 15 14 15 17 17 16 16 16 16 16 14 10 4 5 9 10 10
3 6 4 5 4 5 5 4 3 3 3 4 4 4 4 5 5 6 6 5 5 7 7 5 6 6 3 2 2 3 3 2 3 4 3 4 3 2 1 0 2 2 3 4 3 2 4 5 3 4 5 5 4 4 4 5 4 10 13 8 16 17 18 18 18 16 15 15 14 13 14 15 15 15 15 14 15 15 16 16 12 6 6 13 12
5 5 5 5 4 4 4 3 2 2 3 3 4 4 4 5 5 6 6 4 6 6 6 5 5 4 4 6 5 5 4 2 2 4 3 3 2 1 1 3 2 3 2 4 4 5 5 7 5 4 6 5 5 5 4 6 5 12 17 10 11 16 18 19 18 17 16 14 14 13 13 14 14 13 14 14 13 14 15 16 16 14 10 7 9
6 4 4 5 5 5 5 4 3 3 3 4 4 5 4 5 5 6 6 5 6 6 6 6 6 5 5 4 5 6 6 3 2 2 2 2 1 2 2 3 3 3 4 3 3 3 2 4 4 4 6 7 7 6 5 4 6 15 13 8 7 13 16 18 19 20 19 16 15 15 14 13 13 13 13 13 13 13 14 14 15 14 14 14 12
5 4 4 5 5 4 4 4 3 3 3 4 4 4 4 4 5 5 5 4 6 6 4 5 5 4 4 4 6 5 5 5 2 1 1 1 2 5 4 4 4 3 3 4 3 3 3 3 4 3 6 7 8 6 6 8 5 12 10 6 6 7 12 17 20 19 20 20 19 18 17 14 13 12 12 13 13 13 13 13 14 14 14 14 15
6 4 5 4 4 4 4 4 4 3 3 2 3 2 2 4 4 4 5 4 5 4 4 4 3 3 4 4 3 5 5 5 5 1 1 2 2 1 4 2 4 4 2 3 3 2 4 3 2 5 6 7 7 7 5 5 7 9 5 6 6 6 11 15 16 17 19 20 20 20 18 15 12 11 11 11 12 12 12 13 14 14 15 15 15
5 4 4 4 4 4 4 4 3 4 3 2 1 1 1 1 2 1 2 4 4 3 3 3 3 3 4 5 5 6 4 6 5 5 4 3 4 5 3 2 4 5 2 3 2 1 3 4 0 2 6 8 7 7 5 6 12 10 7 6 7 7 15 15 16 16 16 18 19 19 19 16 11 10 10 11 12 12 12 12 13 15 15 15 14
6 5 4 4 4 3 3 3 2 3 3 3 2 1 0 0 1 1 2 3 3 3 1 3 3 4 4 5 5 6 5 5 6 6 6 5 5 6 6 6 5 4 5 3 3 4 1 5 4 3 3 6 6 5 6 6 9 10 7 8 7 14 15 11 16 15 15 16 17 17 17 16 12 9 9 11 10 11 11 11 11 12 15 15 15
6 5 5 5 4 4 3 3 2 1 3 3 4 3 2 2 2 1 1 2 2 2 1 1 3 4 4 5 4 5 5 6 7 6 6 6 5 6 6 7 6 4 4 3 4 3 2 3 4 7 5 5 5 8 8 6 7 12 6 7 8 11 7 7 12 15 15 15 17 17 15 17 13 11 11 11 11 9 10 10 9 10 12 14 14
5 5 5 5 5 4 3 2 3 3 3 3 2 2 1 3 1 1 0 1 3 1 2 2 3 3 4 4 4 3 4 7 5 6 6 6 5 6 5 6 6 4 4 4 3 4 4 3 4 5 5 4 8 7 8 6 6 6 7 6 6 6 6 6 7 11 14 15 16 16 14 15 15 15 14 13 11 10 9 7 8 8 10 12 13
4 4 4 4 4 4 4 2 3 3 2 0 0 1 1 2 3 0 1 2 3 2 1 3 2 3 3 4 4 3 4 5 5 6 4 5 4 6 5 5 5 5 3 4 3 3 4 5 8 7 6 4 6 6 5 5 5 5 6 7 6 5 6 6 6 7 13 14 15 15 13 13 14 14 14 13 12 10 9 7 7 7 8 10 11
4 6 6 5 5 4 4 4 4 3 1 0 0 1 3 0 1 3 1 2 5 4 3 3 3 3 3 3 3 2 3 6 4 4 4 4 3 4 3 3 4 3 3 2 3 4 4 4 2 5 6 4 3 4 5 3 3 4 7 7 7 6 6 6 6 6 10 14 14 14 13 13 14 13 13 13 11 8 8 8 7 6 7 9 10
6 5 7 6 5 5 4 3 3 3 1 2 3 3 2 3 3 5 5 5 5 4 4 4 3 3 3 3 1 2 3 5 4 3 3 3 3 3 4 3 3 3 3 3 4 3 2 4 4 3 4 3 2 2 3 4 5 6 4 6 6 7 7 7 6 6 8 14 14 14 13 14 14 14 13 14 13 9 7 7 6 6 7 8 9
5 5 5 4 4 4 5 4 3 3 2 2 1 3 1 1 2 5 5 5 2 1 1 3 4 3 3 4 1 1 3 4 3 3 3 4 3 3 3 3 3 3 3 3 3 3 4 4 4 2 3 2 1 2 3 5 5 4 5 5 6 6 7 6 4 5 9 13 12 12 12 13 13 14 14 14 14 10 8 8 7 7 7 8 9
4 4 5 4 4 4 3 2 1 2 3 3 1 1 1 1 3 4 4 4 3 3 4 4 3 3 4 4 2 2 3 4 3 2 2 3 2 3 3 4 4 3 4 4 3 3 4 3 2 4 3 2 3 2 2 4 5 6 7 8 6 5 6 9 8 5 5 4 6 7 8 9 12 14 13 12 14 12 8 8 8 8 7 8 9
5 4 4 4 4 4 3 2 2 3 2 1 2 1 2 3 4 4 3 3 4 4 1 4 4 3 3 3 3 2 3 4 3 3 3 1 0 0 0 0 1 3 3 3 3 4 3 3 3 1 3 3 1 4 4 2 3 2 4 7 9 8 6 5 8 7 5 7 7 10 11 11 12 9 12 13 13 13 9 7 7 8 7 7 8
6 5 5 4 3 2 3 3 4 2 2 2 3 4 3 2 3 4 3 3 3 5 3 3 4 3 3 3 4 3 4 4 4 3 4 3 1 1 2 1 0 1 1 2 3 3 3 3 1 4 2 3 6 3 3 3 3 3 2 3 7 8 9 7 3 6 7 6 8 9 9 10 10 11 13 11 12 14 11 7 6 7 8 7 7
3 3 1 1 3 2 1 3 4 4 2 2 4 4 3 2 2 3 3 3 3 3 4 2 3 3 3 3 4 4 4 7 8 6 6 6 4 2 3 2 1 1 1 1 1 2 2 2 5 3 4 6 5 5 6 3 4 4 4 3 4 6 6 8 7 2 2 5 8 7 7 6 7 7 7 8 8 11 10 7 5 7 8 7 8
3 2 2 2 3 4 3 2 1 1 2 3 6 8 5 2 1 3 2 2 2 3 2 1 0 4 3 4 4 9 10 7 6 5 3 5 2 7 5 3 3 3 3 2 2 3 2 3 5 3 5 6 6 4 3 3 3 2 4 4 6 6 6 9 7 3 3 5 7 9 8 5 5 6 7 7 7 8 7 7 6 5 6 8 8
3 4 3 5 4 5 4 3 3 3 2 3 8 5 4 3 2 1 1 1 2 3 2 1 3 4 4 4 4 7 5 5 3 5 4 4 6 8 8 2 6 6 2 2 3 3 3 4 4 3 3 5 7 5 4 6 3 2 3 3 3 4 4 3 5 9 3 7 6 6 8 6 4 6 7 7 7 8 8 8 12 10 8 9 10
2 4 3 5 5 4 4 4 3 4 3 6 5 4 2 2 1 1 1 1 2 2 3 2 2 3 4 5 5 4 3 4 3 3 5 6 5 6 7 7 7 2 2 3 3 3 2 3 5 5 3 5 5 4 4 2 4 4 3 3 2 2 4 4 4 4 6 4 5 5 7 6 3 4 6 6 7 6 8 11 15 12 10 10 10
3 4 4 5 4 4 4 4 3 2 2 6 5 4 2 1 3 1 1 0 1 2 3 3 3 3 4 5 5 5 4 9 5 4 4 4 6 6 5 7 6 6 6 7 8 3 1 3 4 5 5 4 4 4 2 2 1 4 4 5 3 3 3 5 5 3 8 4 5 4 4 6 4 5 6 6 6 6 8 10 14 14 12 11 11
4 4 4 5 4 4 4 3 2 3 3 6 5 4 2 3 4 3 1 0 1 2 3 3 3 3 5 6 5 5 5 5 4 5 4 4 3 1 2 3 3 6 8 8 9 10 7 2 4 5 5 4 5 4 5 1 2 5 5 6 5 4 5 6 5 5 7 5 3 3 3 4 3 4 6 7 5 6 7 10 12 11 11 12 11
4 4 4 4 3 3 3 3 2 2 3 5 5 4 5 5 5 3 0 1 2 3 3 3 3 4 5 4 4 6 5 5 5 5 4 5 5 4 3 4 4 4 4 4 5 4 4 3 4 7 7 5 6 7 6 4 4 5 5 6 6 5 5 3 4 5 7 5 3 2 5 4 3 4 5 6 6 7 6 9 11 11 11 12 12
1 2 1 2 3 3 3 3 3 2 2 7 8 7 6 6 6 1 1 2 3 3 4 4 4 4 5 5 4 4 5 6 8 11 9 5 4 4 4 4 4 5 5 6 8 8 6 5 4 6 6 6 7 5 5 5 5 5 5 4 2 2 3 5 6 4 4 6 3 3 3 3 3 3 5 6 5 7 7 7 9 11 11 12 12
2 0 2 2 3 4 4 3 3 3 2 6 9 7 7 7 4 2 2 2 3 3 4 4 3 4 5 4 5 5 5 6 9 10 10 8 5 5 5 5 5 4 7 7 7 10 10 9 8 9 10 9 9 10 11 10 6 5 4 4 6 1 2 5 4 2 6 3 1 2 1 5 4 3 6 5 5 6 6 7 7 8 11 12 13
1 2 3 2 1 1 2 4 3 3 4 5 8 8 9 8 6 4 3 2 4 4 5 5 4 3 5 10 8 6 6 6 9 10 10 6 5 6 5 5 6 6 8 7 5 5 7 8 9 9 9 9 10 11 10 10 10 6 3 6 5 1 4 4 5 3 5 6 5 3 1 5 5 3 4 5 4 3 5 6 6 6 9 9 11
1 0 1 2 1 2 3 4 7 5 4 4 9 10 10 9 6 4 4 3 4 5 5 6 5 5 4 6 10 7 7 9 12 11 11 8 5 6 6 5 6 7 9 7 6 7 6 5 5 4 6 8 6 5 7 12 13 10 4 6 4 5 6 6 5 4 5 5 5 3 1 4 4 5 1 4 4 5 4 4 5 7 6 6 7
Wind_Direction
45 25 20 51 42 50 45 33 28 19 27 20 24 1 13 11 350 21 357 355 346 337 328 324 324 325 351 33 37 39 50 53 50 92 137 149 179 234 149 97 72 286 227 234 274 340 359 351 330 304 289 288 282 267 226 254 257 244 235 228 246 248 253 247 242 244 245 243 240 241 238 238 235 231 220 218 220 225 227 216 218 218 212 208 204
34 20 39 32 58 56 49 35 36 24 23 23 5 24 17 5 12 18 5 350 345 327 330 328 345 9 53 60 50 46 41 45 47 63 88 86 64 110 100 152 169 230 197 36 31 24 5 350 341 331 301 303 304 301 297 286 286 269 263 258 253 255 252 252 251 246 243 243 244 242 241 237 233 230 226 223 221 218 224 221 213 215 220 204 202
35 27 35 63 70 63 52 45 36 19 14 13 14 23 16 19 23 19 353 343 333 321 336 344 357 38 69 74 65 61 53 49 45 33 43 60 63 68 133 116 100 97 74 54 31 36 29 30 13 -0 5 7 4 348 339 337 315 297 271 255 256 253 249 248 246 246 244 244 242 240 240 239 237 233 229 225 223 223 221 220 216 214 214 208 201
32 27 60 70 75 70 56 49 33 20 21 25 19 9 17 7 15 11 339 342 334 347 348 358 20 19 89 88 88 81 70 63 68 67 43 44 46 56 47 60 74 60 47 27 41 54 41 35 21 11 11 17 22 12 2 351 354 349 325 301 268 259 256 253 252 250 248 246 244 239 236 237 237 235 231 229 227 226 222 215 223 212 211 212 202
32 59 74 69 73 73 61 53 37 36 28 26 29 14 24 9 359 354 350 351 -0 354 358 30 29 357 40 110 108 100 95 87 74 82 82 84 65 64 57 46 22 53 74 77 12 40 32 13 18 23 27 33 30 30 357 10 8 1 340 328 311 293 283 268 259 255 255 254 250 245 242 240 239 236 232 230 228 227 225 210 218 215 212 210 203
47 62 74 72 63 62 64 51 42 35 29 27 30 25 16 8 347 354 347 358 355 343 2 18 5 9 336 106 94 111 111 91 83 78 95 82 79 76 75 51 38 36 77 76 51 16 13 22 15 40 42 43 29 26 12 12 7 356 348 346 330 318 300 281 271 266 263 258 251 252 251 248 245 240 235 229 226 226 226 214 208 216 211 213 203
44 69 66 67 62 48 38 32 48 40 39 17 38 12 15 355 340 351 334 348 356 342 20 12 6 12 333 107 111 102 92 105 95 94 88 75 53 50 67 111 143 122 92 83 89 26 24 30 64 65 59 52 39 32 18 19 23 1 355 342 342 327 312 293 278 270 261 259 257 253 254 252 245 239 239 233 227 224 223 218 208 209 210 212 207
52 61 71 63 67 59 36 27 25 46 38 13 26 15 346 342 332 4 4 348 0 356 21 14 355 351 1 272 139 128 120 125 137 132 78 66 54 38 19 31 45 68 94 119 103 42 74 74 83 70 64 52 52 37 16 17 17 16 8 17 352 332 319 310 307 291 280 282 269 256 249 248 249 241 233 233 228 226 222 220 214 206 210 210 210
52 54 81 69 63 58 35 41 29 30 6 356 16 5 12 343 341 10 65 347 357 347 1 11 356 347 354 44 163 139 127 130 127 117 85 61 52 44 42 30 64 80 69 75 59 4 84 90 81 77 69 48 38 34 35 29 22 18 21 22 8 356 347 347 338 333 327 297 288 265 256 248 250 249 240 231 225 223 223 220 216 207 208 209 210
46 43 49 54 62 63 43 23 39 25 347 0 334 346 12 23 6 2 16 24 9 2 341 344 359 355 25 49 18 78 113 105 99 93 100 99 89 95 55 32 60 76 83 81 75 57 52 74 74 66 60 56 45 46 39 34 30 25 17 27 7 17 18 6 357 343 330 319 305 291 276 263 252 249 242 237 233 227 226 222 217 209 208 208 208
60 55 67 55 45 35 40 1 15 23 8 0 353 359 15 19 40 10 9 11 9 334 313 314 8 32 59 59 72 26 62 91 95 99 107 122 120 119 81 53 70 81 80 86 91 77 86 74 48 30 4 56 53 47 38 35 33 29 24 17 16 22 21 17 4 356 338 332 319 300 290 278 268 254 246 238 231 232 228 224 218 212 207 204 208
72 62 65 65 42 16 9 346 8 30 30 29 10 21 13 17 20 23 18 3 11 4 354 18 54 61 64 57 46 53 46 51 49 43 68 70 87 77 67 62 76 69 65 78 76 81 75 64 55 39 37 27 39 37 33 29 29 26 26 21 19 19 20 18 16 4 358 347 342 328 310 298 282 266 249 236 220 220 222 219 215 214 207 203 203
71 69 65 56 31 340 349 343 16 52 52 45 30 29 23 32 25 34 39 21 10 359 5 28 69 56 39 63 61 54 60 56 40 27 19 13 22 71 89 81 73 81 84 88 84 84 81 75 66 58 42 38 6 13 19 17 18 24 23 21 19 18 16 15 15 9 2 0 353 338 324 315 301 272 249 232 215 210 207 211 209 210 208 202 201
80 68 61 54 6 353 357 12 40 67 69 50 39 33 26 33 30 49 21 49 29 5 356 61 33 101 97 72 51 33 50 48 43 27 19 20 37 7 86 104 108 106 103 95 95 97 95 89 81 72 49 31 15 4 354 357 345 19 23 21 18 16 16 15 12 6 4 3 1 351 331 326 319 295 247 227 210 204 205 202 201 203 204 201 201
67 61 47 13 356 10 15 43 64 67 57 41 32 34 27 33 36 61 29 10 36 12 23 39 99 29 74 80 21 58 1 5 345 20 13 18 19 14 341 104 105 100 93 85 73 65 69 80 97 96 81 50 33 9 358 353 359 9 17 22 18 13 13 13 11 6 3 4 2 358 350 339 335 325 266 226 209 200 201 201 198 198 201 198 201
71 60 35 9 12 37 54 72 70 73 77 59 41 38 32 31 35 38 57 51 13 9 20 21 53 91 35 93 164 110 22 331 335 294 346 7 34 21 31 29 85 87 83 80 75 63 40 30 42 61 77 79 70 46 15 4 10 10 359 23 18 14 10 10 10 6 4 3 2 360 356 349 344 348 317 239 206 191 191 192 198 199 199 198 199
88 40 48 51 49 55 65 77 84 69 75 71 55 52 47 51 47 53 50 88 40 9 3 13 24 43 136 98 36 42 180 259 5 299 5 32 18 36 38 30 6 63 77 87 69 51 48 38 11 12 22 33 35 24 19 7 6 4 344 17 20 15 8 8 7 6 4 4 2 0 360 357 348 355 338 246 195 189 190 188 196 195 200 194 197
167 95 71 73 62 64 69 58 50 70 80 80 65 50 42 44 36 67 60 44 100 48 12 358 28 35 49 90 160 160 180 256 94 160 327 51 21 37 43 30 20 22 42 66 75 54 36 35 2 7 4 7 357 14 5 2 11 2 8 21 19 14 6 5 5 6 3 3 3 3 4 1 355 4 2 217 161 179 178 191 196 191 195 199 200
203 95 87 78 68 58 63 64 61 47 43 62 58 56 51 47 39 55 65 69 60 63 38 341 358 30 29 54 60 56 94 99 60 48 15 321 21 34 26 22 32 34 32 57 71 60 9 356 352 338 342 343 353 353 8 0 8 7 18 23 18 15 7 2 2 5 4 3 4 5 5 2 3 25 21 50 121 138 155 174 175 200 201 185 218
148 47 71 89 83 65 63 66 65 58 62 48 67 61 50 31 43 47 58 72 81 81 59 32 77 353 13 43 46 53 50 58 65 129 148 73 348 345 37 3 19 16 27 13 65 97 73 0 328 304 313 348 320 316 327 7 341 348 6 19 16 14 10 1 0 3 3 3 4 4 5 3 15 26 30 39 59 71 86 117 135 159 170 189 208
160 119 64 67 90 88 74 69 72 67 63 51 31 33 52 49 32 30 34 37 62 97 75 47 57 45 39 22 40 39 36 40 43 61 79 101 6 36 343 327 13 26 15 6 338 0 43 72 315 352 5 343 334 302 313 53 352 1 6 15 12 11 10 4 359 1 3 4 4 2 4 7 13 22 30 41 58 72 99 159 175 195 192 186 200
73 88 95 94 92 88 84 82 85 82 72 70 60 37 22 43 52 49 41 44 26 68 91 81 71 60 74 85 57 25 34 26 22 34 31 70 101 8 344 12 22 315 356 356 339 333 359 9 14 2 1 348 350 340 328 9 6 33 11 14 9 10 11 4 358 359 3 5 6 4 2 6 10 17 25 30 43 51 18 341 215 196 207 193 198
117 103 116 119 99 94 90 79 71 77 78 68 66 44 14 6 28 53 37 44 34 52 56 54 53 51 54 75 86 91 107 92 77 56 86 51 31 12 326 346 352 2 353 334 5 360 356 12 14 350 355 355 355 2 3 337 342 27 22 13 12 11 4 359 356 356 3 5 10 5 5 4 7 12 19 24 39 57 15 275 294 273 225 214 199
110 110 105 104 99 88 76 62 65 73 74 82 72 56 28 22 23 44 46 41 48 57 52 44 44 51 47 51 83 98 89 110 154 96 78 80 115 51 337 329 351 4 313 1 18 38 25 10 353 4 356 358 2 21 19 2 335 7 30 0 7 2 358 356 357 356 357 2 8 8 6 6 5 5 16 23 28 28 34 39 357 312 293 262 233
136 117 124 113 114 98 86 97 85 79 94 84 71 59 47 40 36 42 48 49 62 71 63 58 56 59 63 45 68 61 106 153 124 116 115 113 112 71 306 86 80 351 350 14 359 316 21 348 353 1 356 353 348 1 10 5 339 7 18 3 1 357 357 354 353 354 355 2 9 10 6 8 7 3 5 17 22 24 23 20 29 14 290 263 247
134 128 135 118 106 104 111 129 132 117 99 91 70 59 58 52 47 48 53 61 66 62 60 59 54 57 61 48 35 36 4 352 111 100 95 69 58 118 341 354 35 9 342 10 344 27 337 339 346 2 356 359 337 328 351 2 352 16 23 19 359 357 358 355 356 359 4 7 7 7 8 6 6 5 1 6 13 20 22 20 10 5 1 313 260
139 148 140 129 123 109 122 126 133 112 80 64 61 62 56 49 46 52 59 65 67 65 56 54 45 42 54 59 46 27 357 3 6 114 158 138 159 169 119 68 358 9 21 345 340 38 347 288 318 357 354 350 346 320 333 360 5 27 38 23 4 357 358 3 6 4 7 4 360 360 360 357 359 1 360 359 5 11 18 20 10 3 355 346 339
143 144 152 130 125 119 122 131 119 87 82 91 80 76 63 55 39 55 64 56 70 61 54 57 44 43 54 52 49 17 3 347 4 269 226 161 151 133 129 106 101 14 352 12 356 336 338 355 314 341 356 353 340 336 345 16 10 24 25 25 12 -0 355 12 10 1 2 360 353 350 349 347 344 347 354 352 1 5 9 14 9 1 355 350 348
150 153 136 123 126 133 127 122 109 108 99 98 91 73 44 73 82 70 75 71 77 75 69 67 48 39 44 54 63 42 6 356 3 32 315 330 65 141 154 147 147 118 56 22 340 350 321 351 8 309 347 351 350 349 3 10 15 34 22 18 4 357 359 12 3 358 356 355 352 347 343 338 334 330 338 349 352 0 4 8 6 6 0 355 349
153 142 129 124 135 130 127 126 139 121 128 133 149 86 46 18 15 43 82 89 94 72 67 72 54 58 50 42 36 36 5 15 2 -0 16 3 43 60 44 76 134 118 156 78 353 260 305 323 31 307 334 349 353 349 360 359 14 30 20 15 6 356 6 1 359 354 350 350 349 345 342 339 327 320 325 342 346 352 2 5 3 5 4 1 355
129 126 127 131 125 114 111 110 92 80 95 129 139 118 82 0 329 0 21 76 90 107 97 82 67 62 47 41 34 36 19 24 18 20 30 28 35 72 61 48 50 84 110 105 54 306 164 351 310 320 335 336 352 352 1 0 10 26 19 11 1 4 6 351 351 349 348 347 347 344 346 348 338 330 328 336 340 342 350 354 359 1 2 1 359
137 139 141 140 137 130 125 123 122 119 91 117 152 176 200 210 230 323 346 72 84 118 132 84 91 76 63 48 34 41 27 38 29 21 30 26 21 45 56 64 51 54 88 103 84 343 303 344 320 312 3 342 11 15 356 6 3 17 14 6 355 4 355 345 341 344 345 343 344 347 356 3 352 350 345 338 332 329 336 344 349 358 357 358 357
144 139 141 149 146 141 131 152 170 162 152 166 99 145 154 264 258 210 286 97 118 161 119 76 70 84 80 69 45 35 58 59 36 33 39 41 37 51 54 60 58 38 71 84 67 2 316 336 338 340 343 11 30 10 10 2 7 357 4 355 349 352 349 339 334 337 342 341 343 346 356 2 360 352 346 340 331 320 323 324 336 345 351 350 349
147 129 138 154 139 143 166 175 216 130 122 128 98 93 286 276 278 286 225 156 161 140 119 109 96 93 78 69 41 36 68 76 57 50 51 54 56 57 47 62 61 43 11 99 75 65 349 333 354 346 356 30 39 8 16 359 351 351 357 354 343 341 342 338 337 334 333 335 339 342 346 351 352 349 341 336 329 317 307 310 317 328 339 338 338
131 137 149 145 155 165 168 188 151 126 116 333 217 136 124 135 24 72 16 171 142 159 149 154 132 102 78 65 37 42 69 73 58 58 55 60 53 66 54 51 57 51 40 61 88 41 14 326 328 347 349 346 45 360 348 342 337 351 356 348 340 333 338 339 337 331 325 330 334 335 337 342 345 343 341 334 323 312 293 290 300 312 316 324 328
128 132 130 143 156 171 160 128 123 98 87 293 313 321 62 51 45 57 47 72 137 171 160 162 137 116 124 85 39 52 77 84 76 67 57 65 59 54 47 28 51 36 58 41 47 84 44 8 330 338 323 332 317 323 329 352 358 349 344 325 331 333 330 335 337 325 320 328 333 334 333 336 340 339 337 335 326 310 293 281 285 289 299 310 322
129 121 127 135 140 140 136 164 162 161 194 211 273 302 305 63 115 80 74 67 68 104 116 133 141 151 146 126 152 102 86 88 63 69 48 52 40 51 42 13 29 30 43 59 49 56 40 7 313 298 306 319 284 291 358 8 337 342 334 333 326 321 322 322 320 318 325 334 332 329 330 332 335 337 333 332 329 313 297 289 279 279 283 301 314
137 141 141 154 145 139 140 156 213 231 189 160 181 332 335 180 105 89 83 97 70 65 128 133 158 181 149 147 165 140 109 107 116 95 71 52 41 45 31 12 11 16 24 27 38 32 27 339 292 301 328 350 331 305 314 10 351 339 342 335 332 337 343 342 339 334 332 327 333 330 333 334 333 332 333 330 329 319 298 292 286 281 282 293 308
148 147 153 156 169 155 181 196 201 228 205 171 69 80 84 56 58 60 52 54 106 109 143 150 172 196 158 150 158 173 142 140 142 143 127 95 95 315 201 128 65 37 8 14 15 28 29 352 312 288 317 305 320 309 313 4 346 335 331 343 348 339 347 359 332 329 333 334 327 332 336 335 333 335 333 334 331 326 302 284 285 288 284 286 304
161 167 172 174 188 167 190 215 235 202 203 77 71 96 90 80 72 62 57 44 27 85 101 151 186 181 175 168 162 193 174 165 165 190 157 159 194 266 254 192 173 49 10 346 2 10 3 355 293 308 311 288 330 298 309 4 6 330 1 5 346 337 334 330 304 303 323 344 346 339 337 340 344 340 340 340 337 337 319 293 291 290 285 289 306
126 128 148 183 180 180 208 227 208 208 156 147 157 127 107 84 85 88 56 22 22 44 103 199 191 182 183 186 188 200 210 176 176 183 198 183 165 204 251 193 206 189 252 347 340 322 334 350 317 315 326 322 306 323 328 339 344 306 297 5 340 329 322 325 327 274 299 341 336 336 336 341 337 336 334 336 337 348 337 319 305 295 285 289 306
119 68 46 55 116 129 106 94 133 118 155 179 144 134 131 156 142 85 55 28 9 32 33 96 248 191 193 203 207 208 207 183 186 187 201 256 168 184 217 208 194 197 233 259 281 264 257 289 283 285 320 307 301 305 293 271 264 298 336 353 352 324 343 338 327 329 341 7 353 345 327 329 345 331 341 339 330 348 343 334 308 295 283 288 297
108 76 112 95 89 91 91 106 109 123 97 95 113 104 134 142 114 73 81 347 2 8 13 62 331 177 211 226 226 232 213 200 219 228 234 281 7 14 22 52 177 177 178 215 255 229 247 254 247 281 269 282 292 289 274 279 271 258 276 307 317 335 358 356 314 314 334 31 347 338 323 320 3 345 335 333 333 338 339 334 318 302 294 292 294
109 131 144 113 105 96 98 83 85 108 121 114 101 118 115 61 57 141 98 27 339 7 334 345 296 197 198 219 230 236 220 221 220 268 279 290 327 5 10 12 9 32 168 179 222 267 225 247 264 255 243 265 272 289 277 274 292 303 286 299 285 307 312 317 287 288 280 20 344 322 310 301 340 339 339 327 327 326 322 325 331 322 303 295 289
114 128 135 121 122 122 112 116 119 137 136 143 157 154 129 78 312 358 119 125 345 323 316 298 271 210 200 210 227 231 229 229 220 223 243 275 295 329 352 345 348 337 336 326 320 305 193 220 231 257 231 236 259 266 228 265 244 294 302 309 291 266 237 262 263 265 296 328 335 293 297 298 333 334 327 314 318 320 324 328 329 334 321 302 294
120 129 111 123 137 125 134 136 147 166 188 178 165 157 170 248 262 279 200 269 266 288 299 296 283 230 197 201 203 219 232 246 231 218 231 238 253 320 354 349 318 318 320 315 314 314 323 243 216 230 249 179 231 245 267 259 282 288 297 294 289 289 274 258 259 269 278 294 264 271 281 291 308 327 315 307 318 320 318 312 318 325 325 317 302
145 137 138 140 170 160 152 148 141 198 224 192 170 199 202 234 253 280 77 346 338 315 288 274 259 242 235 213 191 206 223 228 234 216 214 229 238 265 294 295 296 287 288 284 278 277 286 273 212 222 243 232 230 248 258 251 236 248 244 252 261 259 270 285 291 262 279 273 252 239 271 274 306 328 296 301 315 314 308 308 309 313 321 329 321
117 129 125 138 167 175 180 166 170 207 255 194 199 203 214 231 247 270 7 341 318 307 305 297 290 263 242 237 217 216 218 218 231 234 231 207 213 234 255 272 291 294 288 262 262 265 264 261 232 221 223 228 237 250 266 269 270 264 257 269 289 265 297 303 287 301 281 284 254 255 272 290 284 293 293 298 307 309 308 304 303 308 318 327 323
111 144 202 205 181 179 194 195 190 222 257 219 206 203 213 222 239 254 288 315 294 291 280 283 268 263 263 242 230 228 230 235 236 228 242 212 197 220 237 259 270 289 281 287 260 256 260 276 263 242 248 266 280 280 279 281 276 269 266 306 293 239 278 292 290 287 279 294 269 205 215 298 292 277 297 290 299 300 299 296 297 299 311 317 318
95 231 199 217 262 217 218 218 208 207 233 232 213 210 216 220 218 226 237 251 285 286 291 297 296 282 264 264 244 226 241 250 251 242 236 230 199 222 233 250 269 273 276 273 280 264 260 265 265 264 270 271 269 275 281 284 284 280 247 271 261 165 248 246 266 264 293 302 266 174 328 259 281 268 276 286 302 273 281 286 285 300 310 309 311
155 269 133 173 279 250 225 226 234 224 235 233 206 210 219 220 225 226 224 235 274 281 285 294 298 291 282 280 278 266 235 243 250 250 247 239 221 224 228 230 249 260 258 264 273 285 291 294 280 278 281 276 280 278 280 288 293 297 260 242 238 182 234 252 254 301 318 285 260 170 302 281 317 277 242 326 315 286 276 267 300 302 300 304 303